Regional Weather Roundup
Issued by NWS Northern Indiana

Home | Current Version | Previous Version | Text Only | Print | Product List | Glossary Off
Versions: 1 2 3 4 5 6 7 8 9 10 11 12 13 14 15 16 17 18 19 20 21 22 23 24 25 26 27 28 29 30 31 32 33 34 35 36 37 38 39 40 41 42 43 44 45 46 47 48 49 50

000
ASUS43 KIWX 251100
RWRIWX

KIWX WEATHER ROUNDUP
NATIONAL WEATHER SERVICE NORTHERN INDIANA
600 AM EST SUN JAN 25 2015

NOTE: "FAIR" INDICATES FEW OR NO CLOUDS BELOW 12,000 FEET WITH NO
SIGNIFICANT WEATHER AND/OR OBSTRUCTIONS TO VISIBILITY.

* THESE STATIONS ARE NOT UNDER NWS QUALITY CONTROL. THEY ALSO MAY NOT
  REPORT WEATHER SUCH AS PRECIPITATION OR FOG.

INZ001>027-251200-
NORTHERN INDIANA

CITY           SKY/WX    TMP DP  RH WIND       PRES   REMARKS
GARY*          CLOUDY    36  32  87 NE9       29.70R FOG
SOUTH BEND     CLOUDY    34  31  88 NE3       29.69S FOG
GOSHEN         CLOUDY    35  33  92 E5        29.69R FOG     WCI  31
ANGOLA*        CLOUDY    34  25  69 CALM      29.69S
FORT WAYNE     CLOUDY    32  31  96 E5        29.70S WCI  27
PERU/GRISSOM   CLOUDY    32  31  94 SE6       29.67S WCI  27

$$
INZ028>050-251200-
CENTRAL INDIANA

CITY           SKY/WX    TMP DP  RH WIND       PRES   REMARKS
LAFAYETTE      CLOUDY    32  30  92 E5        29.65F WCI  27
KOKOMO*        CLOUDY    32  30  93 SE5       29.68S WCI  27
MUNCIE*        CLOUDY    35  30  82 S5        29.68S WCI  31
INDIANAPOLIS   CLOUDY    32  30  92 SE6       29.66F WCI  26

$$
MIZ043>046-050>051-056>058-064>065-071>073-077>080-251200-
SOUTHWEST LOWER MICHIGAN

CITY           SKY/WX    TMP DP  RH WIND       PRES   REMARKS
BATTLE CREEK   CLOUDY    34  29  82 NE9       29.73R WCI  27
BENTON HARBOR  CLOUDY    34  33  96 NE5       29.70S FOG     WCI  30
COLDWATER*     CLOUDY    34  32  94 MISG      29.71R FOG
HILLSDALE*     CLOUDY    35  34  97 NE6       29.70R FOG     WCI  30
HOLLAND        FLURRIES  34  27  75 E9        29.75R WCI  27
GRAND RAPIDS   CLOUDY    30  25  81 NE16      29.77R WCI  19
KALAMAZOO      CLOUDY    34  31  88 NE12      29.72R FOG     WCI  25
STURGIS*       CLOUDY    34  32  93 NE5       29.69S FOG     WCI  30
THREE RIVERS*  CLOUDY    34  32  92 NE5       29.70S FOG     WCI  30

$$
OHZ001>008-015>018-024>025-251200-
NORTHWEST OHIO

CITY           SKY/WX    TMP DP  RH WIND       PRES   REMARKS
DEFIANCE       CLOUDY    35  32  88 CALM      29.72R
FINDLAY        CLOUDY    35  31  85 SE5       29.71R WCI  31
TOLEDO EXPRESS CLOUDY    33  31  92 NE5       29.72R FOG     WCI  29
TOLEDO METCALF CLOUDY    35  31  85 CALM      29.73S
LIMA           CLOUDY    35  30  82 S7        29.70S WCI  29

$$
AND FOR LAKE MICHIGAN COASTAL AND OPEN LAKE BUOY OBSERVATIONS

STATION/POSITION TEMP    WIND        PRES    VSBY  WAVE
                 AIR SEA DIR/SP/G                  HT/PER
                 (F)     (DEG/KT/KT) (MB)    (MI)  (FT/S)
CALUMET HARBOR    33      20/  5/  6   N/A
MICHIGAN CITY     32      40/  8/  8   N/A
SAINT JOSEPH      34      10/  1/  4 1006.8R

$$
&&



USA.gov is the U.S. government's official web portal to all federal, state and local government web resources and services.